Location: Unspecified
(42.3650°N, 71.1030°W)
Time: 17:01:15
(UTC+00:00)

S-56A Canister/Altair - Pass Details

Date: 27 June 2024
Orbit: 638 x 2487 km, 38.9° (Epoch: 20 July)

Event Time Altitude Azimuth Distance (km) Brightness Sun altitude
Rises 03:03:03 0° 270° (W) 4,273 11.7 -20.0°
Reaches altitude 10° 03:05:32 10° 268° (W) 3,515 11.2 -20.2°
Maximum altitude 03:14:54 73° 186° (S) 1,936 9.3 -20.9°
Drops below altitude 10° 03:28:31 10° 105° (ESE) 4,952 11.3 -21.8°
Sets 03:32:44 0° 104° (ESE) 6,080 11.8 -22.1°
